This demonstration page uses our WeatherBlox Daily Observations layout. Learn more.

36.17497, -115.13722

Hourly Observations for April 22, 2015

Temp ( °F °C ) Dew Point ( °F °C ) Humidity (%) Winds ( mph kmh ) Pressure ( in mb ) Visibility ( mi km ) Precip ( " mm )
12:53 am 00:53 Clear 68 20 24 -4.4 19 19 WSW 6 9 29.75 1007 10 16.0934 0 0
1:53 am 01:53 Clear 65 18.3 24 -4.4 21 21 NE 3 6 29.74 1007 10 16.0934 0 0
2:53 am 02:53 Clear 61 16.1 25 -3.9 25 25 NNW 5 7 29.75 1007 10 16.0934 0 0
3:53 am 03:53 Clear 61 16.1 27 -2.8 27 27 Calm 29.75 1007 10 16.0934 0 0
4:53 am 04:53 Clear 58 14.4 25 -3.9 28 28 NNW 5 7 29.76 1008 10 16.0934 0 0
5:53 am 05:53 Clear 57 13.9 22 -5.6 26 26 N 7 11 29.77 1008 10 16.0934 0 0
6:53 am 06:53 Sunny 59 15 23 -5 25 25 N 6 9 29.79 1009 10 16.0934 0 0
7:53 am 07:53 Sunny 64 17.8 24 -4.4 22 22 N 3 6 29.8 1009 10 16.0934 0 0
8:53 am 08:53 Sunny 68 20 25 -3.9 20 20 ESE 6 9 29.82 1010 10 16.0934 0 0
9:53 am 09:53 Sunny 71 21.7 26 -3.3 19 19 SE 10 17 29.83 1010 10 16.0934 0 0
10:53 am 10:53 Sunny 73 22.8 27 -2.8 18 18 SSE 12 19 29.83 1010 10 16.0934 0 0
11:53 am 11:53 Sunny 75 23.9 25 -3.9 15 15 WSW 8 13 29.81 1010 10 16.0934 0 0
12:53 pm 12:53 Mostly Cloudy 76 24.4 26 -3.3 16 16 VRB 3 6 29.79 1009 10 16.0934 0 0
1:53 pm 13:53 Mostly Cloudy 78 25.6 24 -4.4 13 13 undefined N/A 29.78 1008 10 16.0934 0 0
2:53 pm 14:53 Partly Cloudy 77 25 23 -5 13 13 SE 9 15 29.76 1008 10 16.0934 0 0
3:53 pm 15:53 Sunny 78 25.6 21 -6.1 12 12 SSE 13 20 29.73 1007 10 16.0934 0 0
4:38 pm 16:38 Mostly Cloudy 79 26 19 -7 11 11 SSW 20 31 29.56 1001 10 16.0934 0 0
4:53 pm 16:53 Partly Cloudy 77 25 24 -4.4 14 14 SSW 20 31 29.73 1007 10 16.0934 0 0
5:53 pm 17:53 Sunny 76 24.4 18 -7.8 11 11 SW 8 13 29.73 1007 10 16.0934 0 0
6:53 pm 18:53 Sunny 73 22.8 27 -2.8 18 18 W 14 22 29.75 1007 10 16.0934 0 0
7:53 pm 19:53 Clear 71 21.7 29 -1.7 21 21 W 15 24 29.75 1008 10 16.0934 0 0
8:53 pm 20:53 Clear 71 21.7 27 -2.8 19 19 W 8 13 29.76 1008 10 16.0934 0 0
9:53 pm 21:53 Clear 69 20.6 28 -2.2 22 22 Calm 29.77 1008 10 16.0934 0 0
10:53 pm 22:53 Mostly Clear 68 20 29 -1.7 23 23 Calm 29.78 1008 10 16.0934 0 0
11:53 pm 23:53 Clear 67 19.4 29 -1.7 24 24 NNW 6 9 29.78 1008 10 16.0934 0 0

Powered by AerisWeather